| time (UTC) | temp F | wind direction | speed MPH | gust MPH | rain 1hr in | rain 24hr in | rain mn in | humidity % | barometer mb |
| 20260831174554 | 94 | 187 | 2.0 | 7.0 | 0.00 | 0.00 | 0.00 | 34 | 1013.7 |
| 20260831173049 | 92 | 153 | 1.0 | 4.0 | 0.00 | 0.00 | 0.00 | 38 | 1013.7 |
| 20260831171546 | 89 | 148 | 0.0 | 4.0 | 0.00 | 0.00 | 0.00 | 39 | 1013.9 |
| 20260831170045 | 89 | 269 | 1.0 | 4.0 | 0.00 | 0.00 | 0.00 | 39 | 1014.0 |
| 20260831164603 | 89 | 79 | 1.0 | 4.0 | 0.00 | 0.00 | 0.00 | 38 | 1014.0 |
| 20260831163045 | 90 | 117 | 1.0 | 4.0 | 0.00 | 0.00 | 0.00 | 37 | 1014.1 |
| 20260831161559 | 90 | 254 | 2.0 | 11.0 | 0.00 | 0.00 | 0.00 | 38 | 1014.2 |
| 20260831160054 | 89 | 168 | 2.0 | 8.0 | 0.00 | 0.00 | 0.00 | 39 | 1014.2 |
| 20260831154537 | 87 | 157 | 2.0 | 8.0 | 0.00 | 0.00 | 0.00 | 39 | 1014.1 |
| 20260831153034 | 86 | 242 | 1.0 | 6.0 | 0.00 | 0.00 | 0.00 | 42 | 1014.0 |
| 20260831151532 | 85 | 140 | 2.0 | 5.0 | 0.00 | 0.00 | 0.00 | 41 | 1014.1 |
| 20260831150030 | 84 | 108 | 2.0 | 9.0 | 0.00 | 0.00 | 0.00 | 41 | 1014.1 |
| 20260831144530 | 84 | 148 | 1.0 | 5.0 | 0.00 | 0.00 | 0.00 | 43 | 1014.2 |
| 20260831143029 | 83 | 93 | 1.0 | 9.0 | 0.00 | 0.00 | 0.00 | 44 | 1014.2 |
| 20260831141531 | 82 | 131 | 1.0 | 12.0 | 0.00 | 0.00 | 0.00 | 45 | 1014.2 |
| 20260831140026 | 81 | 151 | 0.0 | 3.0 | 0.00 | 0.00 | 0.00 | 47 | 1014.2 |
| 20260831134530 | 80 | 120 | 2.0 | 6.0 | 0.00 | 0.00 | 0.00 | 48 | 1014.2 |
| 20260831133025 | 79 | 94 | 0.0 | 7.0 | 0.00 | 0.00 | 0.00 | 49 | 1014.0 |
| 20260831131542 | 78 | 119 | 0.0 | 3.0 | 0.00 | 0.00 | 0.00 | 51 | 1014.0 |
| 20260831130037 | 77 | 116 | 0.0 | 6.0 | 0.00 | 0.00 | 0.00 | 51 | 1014.0 |
| 20260831124522 | 76 | 163 | 0.0 | 1.0 | 0.00 | 0.00 | 0.00 | 51 | 1014.0 |
| 20260831123024 | 76 | 163 | 0.0 | 0.0 | 0.00 | 0.00 | 0.00 | 51 | 1013.9 |
| 20260831121525 | 76 | 163 | 0.0 | 1.0 | 0.00 | 0.00 | 0.00 | 50 | 1013.7 |
| 20260831120016 | 77 | 164 | 0.0 | 1.0 | 0.00 | 0.00 | 0.00 | 49 | 1013.4 |
| 20260831114515 | 77 | 164 | 0.0 | 2.0 | 0.00 | 0.00 | 0.00 | 48 | 1013.3 |
| 20260831113013 | 77 | 165 | 0.0 | 1.0 | 0.00 | 0.00 | 0.00 | 48 | 1013.2 |
| 20260831111511 | 78 | 165 | 0.0 | 1.0 | 0.00 | 0.00 | 0.00 | 47 | 1013.1 |
| 20260831110013 | 78 | 167 | 0.0 | 1.0 | 0.00 | 0.00 | 0.00 | 47 | 1013.1 |
| 20260831104518 | 79 | 170 | 0.0 | 2.0 | 0.00 | 0.00 | 0.00 | 46 | 1012.9 |
| 20260831103013 | 79 | 148 | 0.0 | 2.0 | 0.00 | 0.00 | 0.00 | 45 | 1012.8 |
| 20260831101504 | 79 | 132 | 0.0 | 3.0 | 0.00 | 0.00 | 0.00 | 45 | 1012.6 |
| 20260831100001 | 80 | 143 | 0.0 | 3.0 | 0.00 | 0.00 | 0.00 | 44 | 1012.2 |
| 20260831094501 | 80 | 119 | 1.0 | 5.0 | 0.00 | 0.00 | 0.00 | 44 | 1012.3 |
| 20260831093112 | 80 | 135 | 1.0 | 3.0 | 0.00 | 0.00 | 0.00 | 43 | 1012.4 |
| 20260831091558 | 80 | 123 | 1.0 | 7.0 | 0.00 | 0.00 | 0.00 | 42 | 1012.4 |
| 20260831090114 | 81 | 130 | 0.0 | 3.0 | 0.00 | 0.00 | 0.00 | 42 | 1012.2 |
| 20260831084556 | 81 | 190 | 0.0 | 4.0 | 0.00 | 0.00 | 0.00 | 42 | 1012.3 |
| 20260831083107 | 81 | 87 | 1.0 | 3.0 | 0.00 | 0.00 | 0.00 | 42 | 1012.4 |
| 20260831081559 | 81 | 105 | 0.0 | 4.0 | 0.00 | 0.00 | 0.00 | 41 | 1012.3 |
| 20260831080123 | 82 | 113 | 0.0 | 3.0 | 0.00 | 0.00 | 0.00 | 40 | 1012.2 |
| 20260831074548 | 83 | 115 | 1.0 | 4.0 | 0.00 | 0.00 | 0.00 | 39 | 1012.2 |
| 20260831073047 | 83 | 137 | 0.0 | 2.0 | 0.00 | 0.00 | 0.00 | 38 | 1011.8 |
| 20260831071547 | 83 | 127 | 1.0 | 8.0 | 0.00 | 0.00 | 0.00 | 38 | 1011.9 |
| 20260831070044 | 83 | 115 | 1.0 | 6.0 | 0.00 | 0.00 | 0.00 | 37 | 1011.9 |
| 20260831064542 | 84 | 138 | 0.0 | 2.0 | 0.00 | 0.00 | 0.00 | 36 | 1011.9 |
| 20260831063040 | 84 | 138 | 0.0 | 2.0 | 0.00 | 0.00 | 0.00 | 36 | 1011.8 |
| 20260831061540 | 85 | 138 | 0.0 | 3.0 | 0.00 | 0.00 | 0.00 | 35 | 1011.8 |
| 20260831060036 | 85 | 134 | 0.0 | 2.0 | 0.00 | 0.00 | 0.00 | 34 | 1011.7 |
| 20260831054535 | 85 | 106 | 0.0 | 4.0 | 0.00 | 0.00 | 0.00 | 34 | 1011.7 |
| 20260831053055 | 85 | 165 | 0.0 | 7.0 | 0.00 | 0.00 | 0.00 | 35 | 1011.5 |
| 20260831051538 | 85 | 123 | 1.0 | 3.0 | 0.00 | 0.00 | 0.00 | 35 | 1011.5 |
| 20260831050030 | 85 | 99 | 0.0 | 3.0 | 0.00 | 0.00 | 0.00 | 36 | 1011.4 |
| 20260831044602 | 85 | 88 | 0.0 | 3.0 | 0.00 | 0.00 | 0.00 | 36 | 1011.3 |
| 20260831043029 | 85 | 113 | 0.0 | 6.0 | 0.00 | 0.00 | 0.00 | 36 | 1011.2 |
| 20260831041534 | 86 | 155 | 0.0 | 2.0 | 0.00 | 0.00 | 0.00 | 37 | 1011.3 |
| 20260831040030 | 86 | 135 | 0.0 | 3.0 | 0.00 | 0.00 | 0.00 | 36 | 1011.3 |
| 20260831034629 | 86 | 139 | 1.0 | 4.0 | 0.00 | 0.00 | 0.00 | 36 | 1011.1 |
| 20260831033032 | 86 | 159 | 1.0 | 3.0 | 0.00 | 0.00 | 0.00 | 37 | 1011.3 |
| 20260831031534 | 86 | 119 | 0.0 | 6.0 | 0.00 | 0.00 | 0.00 | 37 | 1011.2 |
| 20260831030026 | 86 | 112 | 0.0 | 4.0 | 0.00 | 0.00 | 0.00 | 37 | 1011.1 |
| 20260831024526 | 86 | 112 | 0.0 | 3.0 | 0.00 | 0.00 | 0.00 | 37 | 1011.1 |
| 20260831023026 | 87 | 119 | 0.0 | 2.0 | 0.00 | 0.00 | 0.00 | 36 | 1011.0 |
| 20260831021529 | 87 | 119 | 0.0 | 2.0 | 0.00 | 0.00 | 0.00 | 35 | 1010.8 |
| 20260831020025 | 88 | 119 | 0.0 | 1.0 | 0.00 | 0.00 | 0.00 | 34 | 1010.6 |
| 20260831014524 | 89 | 119 | 0.0 | 1.0 | 0.00 | 0.00 | 0.00 | 34 | 1010.5 |
| 20260831013024 | 90 | 119 | 0.0 | 3.0 | 0.00 | 0.00 | 0.00 | 33 | 1010.3 |
| 20260831011527 | 90 | 115 | 0.0 | 3.0 | 0.00 | 0.00 | 0.00 | 32 | 1010.1 |
| 20260831010032 | 92 | 123 | 0.0 | 2.0 | 0.00 | 0.00 | 0.00 | 31 | 1010.0 |
| 20260831004522 | 93 | 123 | 0.0 | 3.0 | 0.00 | 0.00 | 0.00 | 29 | 1010.0 |
| 20260831003023 | 94 | 125 | 0.0 | 3.0 | 0.00 | 0.00 | 0.00 | 29 | 1010.1 |
| 20260831001524 | 95 | 126 | 0.0 | 3.0 | 0.00 | 0.00 | 0.00 | 28 | 1009.8 |
| 20260831000023 | 96 | 150 | 0.0 | 3.0 | 0.00 | 0.00 | 0.00 | 27 | 1009.8 |
| 20260830234520 | 96 | 123 | 1.0 | 6.0 | 0.00 | 0.00 | 0.00 | 26 | 1009.7 |
| 20260830233019 | 97 | 100 | 1.0 | 7.0 | 0.00 | 0.00 | 0.00 | 25 | 1009.7 |
| 20260830231521 | 97 | 15 | 1.0 | 7.0 | 0.00 | 0.00 | 0.00 | 26 | 1009.8 |
| 20260830230018 | 98 | 86 | 2.0 | 8.0 | 0.00 | 0.00 | 0.00 | 25 | 1009.8 |
| 20260830224518 | 98 | 112 | 2.0 | 9.0 | 0.00 | 0.00 | 0.00 | 25 | 1009.6 |
| 20260830223017 | 98 | 112 | 2.0 | 9.0 | 0.00 | 0.00 | 0.00 | 25 | 1009.7 |
| 20260830221516 | 99 | 104 | 2.0 | 10.0 | 0.00 | 0.00 | 0.00 | 24 | 1009.9 |
| 20260830220015 | 99 | 121 | 1.0 | 8.0 | 0.00 | 0.00 | 0.00 | 25 | 1009.7 |
| 20260830214513 | 100 | 44 | 3.0 | 10.0 | 0.00 | 0.00 | 0.00 | 25 | 1009.9 |
| 20260830213011 | 100 | 97 | 1.0 | 7.0 | 0.00 | 0.00 | 0.00 | 27 | 1010.0 |
| 20260830211510 | 100 | 44 | 3.0 | 7.0 | 0.00 | 0.00 | 0.00 | 25 | 1010.1 |
| 20260830210007 | 100 | 100 | 1.0 | 10.0 | 0.00 | 0.00 | 0.00 | 26 | 1010.2 |
| 20260830204505 | 100 | 115 | 2.0 | 9.0 | 0.00 | 0.00 | 0.00 | 27 | 1010.4 |
| 20260830203012 | 99 | 115 | 1.0 | 7.0 | 0.00 | 0.00 | 0.00 | 29 | 1010.6 |
| 20260830201502 | 99 | 122 | 1.0 | 7.0 | 0.00 | 0.00 | 0.00 | 27 | 1010.8 |
| 20260830200058 | 99 | 287 | 1.0 | 4.0 | 0.00 | 0.00 | 0.00 | 30 | 1010.9 |
| 20260830194554 | 98 | 90 | 1.0 | 5.0 | 0.00 | 0.00 | 0.00 | 31 | 1011.2 |
| 20260830193051 | 97 | 151 | 1.0 | 7.0 | 0.00 | 0.00 | 0.00 | 29 | 1011.4 |
| 20260830191546 | 96 | 119 | 2.0 | 9.0 | 0.00 | 0.00 | 0.00 | 31 | 1011.5 |
| 20260830190043 | 95 | 126 | 1.0 | 5.0 | 0.00 | 0.00 | 0.00 | 33 | 1011.7 |
| 20260830184542 | 95 | 55 | 2.0 | 7.0 | 0.00 | 0.00 | 0.00 | 32 | 1011.8 |
| 20260830183039 | 95 | 98 | 2.0 | 6.0 | 0.00 | 0.00 | 0.00 | 31 | 1011.9 |
| 20260830181540 | 95 | 109 | 4.0 | 9.0 | 0.00 | 0.00 | 0.00 | 32 | 1011.9 |
| 20260830180033 | 94 | 109 | 2.0 | 7.0 | 0.00 | 0.00 | 0.00 | 33 | 1012.1 |